Regional Weather Roundup
Issued by NWS

Home | Current Version | Previous Version | Text Only | Print | Product List | Glossary Off
Versions: 1 2 3 4 5 6 7 8 9 10 11 12 13 14 15 16 17 18 19 20 21 22 23 24 25 26 27 28 29 30 31 32 33 34 35 36 37 38 39 40 41 42 43 44 45 46 47 48 49 50

000
ASUS43 KBIS 160910
RWRND

NORTH DAKOTA REGIONAL WEATHER ROUNDUP
NATIONAL WEATHER SERVICE BISMARCK ND
300 AM CST MON JAN 16 2017

NOTE: "FAIR" INDICATES FEW OR NO CLOUDS BELOW 12,000 FEET WITH NO
SIGNIFICANT WEATHER AND/OR OBSTRUCTIONS TO VISIBILITY.


NDZ001>003-009>011-017-161000-
NORTHWEST NORTH DAKOTA

CITY           SKY/WX    TMP DP  RH WIND       PRES   REMARKS
WILLISTON      FAIR       6   2  83 VRB3      30.05R
MINOT          FAIR      18   9  68 W13       30.00S WCI   5
$$

NDZ018>021-031>035-040>046-161000-
SOUTHWEST NORTH DAKOTA

CITY           SKY/WX    TMP DP  RH WIND       PRES   REMARKS
BISMARCK       FAIR      -2  -8  76 CALM      30.08R
DICKINSON      FAIR      13   4  67 W8        30.01R WCI   2
GARRISON         N/A     11   4  73 W6        30.02R WCI   1
HETTINGER ARPT CLOUDY    11   3  70 W10       30.05R WCI  -3
$$

NDZ004>008-012>016-024-026-027-054-161000-
NORTHEAST NORTH DAKOTA

CITY           SKY/WX    TMP DP  RH WIND       PRES   REMARKS
GRAND FORKS    CLOUDY     5   0  79 S9        30.06R WCI  -9
GRND FRKS AFB  CLOUDY     6   0  75 S7        30.05R WCI  -6
DEVILS LAKE    FAIR       9   4  80 W10       30.02R WCI  -5
$$

NDZ022-023-025-028>030-036>039-047>053-161000-
SOUTHEAST NORTH DAKOTA

CITY           SKY/WX    TMP DP  RH WIND       PRES   REMARKS
FARGO          CLOUDY     6   4  91 E5        30.11R WCI  -3
JAMESTOWN      FAIR       1  -2  87 CALM      30.04R
$$




USA.gov is the U.S. government's official web portal to all federal, state and local government web resources and services.